Regional Weather Roundup
Issued by NWS

Home | Current Version | Previous Version | Graphics & Text | Print | Product List | Glossary On
Versions: 1 2 3 4 5 6 7 8 9 10 11 12 13 14 15 16 17 18 19 20 21 22 23 24 25 26 27 28 29 30 31 32 33 34 35 36 37 38 39 40 41 42 43 44 45 46 47 48 49 50
838
ASUS45 KSLC 230710
RWRUT

UTAH REGIONAL WEATHER ROUNDUP
NATIONAL WEATHER SERVICE SALT LAKE CITY UT
100 AM MDT FRI JUN 23 2017

UTZ001>011-023>025-230800-

NORTHERN UTAH

CITY           SKY/WX    TMP DP  RH WIND       PRES   REMARKS
BRIGHAM CITY   CLEAR     65  25  21 W6        30.10S
HILL AFB       CLEAR     64  32  30 SE3       30.11S
LOGAN          CLEAR     61  38  42 VRB3      30.12R
OGDEN          CLEAR     67  31  26 N8        30.09R
SALT LAKE CITY CLEAR     72  42  34 NW13      30.07R
TOOELE VALLEY  CLEAR     55  37  50 W7        30.10S
WENDOVER         N/A     71  22  15 VRB5      30.11R
HEBER CITY     CLEAR     52  34  50 CALM      30.15S
WEST JORDAN    CLEAR     69  44  40 W13G18    30.11R

$$

UTZ011>015-024>027-230800-

CENTRAL/NORTHEAST UTAH

CITY           SKY/WX    TMP DP  RH WIND       PRES   REMARKS
PROVO AIRPORT  CLEAR     64  45  49 E5        30.09R
MOAB/CANYONLAN CLEAR     78  22  12 W16       29.94R
DELTA          CLEAR     66  28  24 NE3       30.08R
PRICE          CLEAR     68  23  18 N9        30.12R
ROOSEVELT      CLEAR     63  30  29 SW6       30.11R
VERNAL         CLEAR     72  35  25 NE8G17    30.08R

$$

UTZ013>016-019>022-027-230800-

SOUTHERN UTAH

CITY           SKY/WX    TMP DP  RH WIND       PRES   REMARKS
BRYCE CANYON   CLEAR     55  32  41 N5        30.26R
CEDAR CITY     CLEAR     68  32  26 VRB3      30.10R
MILFORD        CLEAR     69  23  17 N12       30.08R
ST GEORGE      SUNNY     92  34  13 NW8       29.81R
HANKSVILLE     CLEAR     77  27  15 W6        30.00R
BLANDING       CLEAR     70  32  24 NW9       30.12R

$$

REGIONAL REPORTS     COLORADO/ARIZONA

CITY           SKY/WX    TMP DP  RH WIND       PRES   REMARKS
CRAIG, CO      CLEAR     58  28  32 SW7       30.13R
GRAND JUNCTION CLEAR     79  26  14 N15       29.99R
RIFLE, CO      CLEAR     63  39  41 E5        30.07R
MONTROSE, CO   CLEAR     67  38  34 S6        30.05R
CORTEZ, CO     CLEAR     60  35  39 NE7       30.05R
COLORADO CITY    N/A     63  28  27 E6        30.02S
PAGE, AZ       CLEAR     85  30  13 SW3       29.93R
GRAND CANYON   CLEAR     54  21  27 NE3       30.20R
KINGMAN, AZ    CLEAR     84  41  21 SW10      29.90R
FLAGSTAFF, AZ  CLEAR     57  28  33 CALM      30.22S

$$

REGIONAL REPORTS    NEVADA/IDAHO/WYOMING

CITY           SKY/WX    TMP DP  RH WIND       PRES   REMARKS
LAS VEGAS, NV  CLEAR    100  15   4 S7        29.73S HX  92
ELY, NY        CLEAR     61  27  27 W3        30.19R
ELKO, NV       CLEAR     64  22  20 NE7       30.19R
POCATELLO, ID  CLEAR     56  34  43 S12       30.16S
BURLEY, ID     CLEAR     61  29  29 SW13      30.13R
FORT BRIDGER,    N/A     54  34  46 W7        30.29S
EVANSTON, WY   CLOUDY    57  33  40 NE8       30.27R
ROCK SPRINGS,  CLEAR     53  27  36 NE15G24   30.25R
KEMMERER, WY     N/A     50  34  53 W3        30.28R

$$




USA.gov is the U.S. government's official web portal to all federal, state and local government web resources and services.